Location: 81360 Arifat, France
(43.7204°N, 2.3408°E)
Time: 06:49:17
(UTC+01:00)

Vanguard 3 - Visible Passes

Search period start: 07 December 2025 00:00
Search period end: 17 December 2025 00:00
Orbit: 507 x 3207 km, 33.3° (Epoch: 06 December)

Date Brightness Start Highest point End Pass type
(mag) Time Alt. Az. Time Alt. Az. Time Alt. Az.
07 Dec 8.9 19:27:39 10° SW 19:28:55 11° SSW 19:30:13 10° S visible
08 Dec 8.7 18:05:35 10° SW 18:08:19 17° SSW 18:10:49 10° SSE visible
09 Dec 9.0 18:56:31 10° SW 18:57:37 11° SSW 18:58:41 10° S visible
11 Dec 9.2 18:24:51 10° SW 18:26:15 11° SSW 18:27:36 10° S visible
13 Dec 9.3 17:52:46 10° SW 17:54:52 13° SSW 17:56:44 10° S visible
